Hourly Weather Almansa

Today, 8 March, Monday

Time Temperature Precipitation Wind Pressure Humidity
00:00 +7°C° 0 mm 2 mps 700 mmHg 95%
01:00 +7°C° 0.4 mm 2 mps 700 mmHg 94%
02:00 +7°C° 0.4 mm 2 mps 699 mmHg 94%
03:00 +7°C° 0.4 mm 2 mps 699 mmHg 94%
04:00 +8°C° 0.1 mm 1 mps 699 mmHg 94%
05:00 +8°C° 0.1 mm 1 mps 699 mmHg 93%
06:00 +8°C° 0 mm 1 mps 699 mmHg 92%
07:00 +8°C° 0.1 mm 1 mps 699 mmHg 90%
08:00 +9°C° 0.1 mm 1 mps 700 mmHg 87%
09:00 +9°C° 0.1 mm 1 mps 700 mmHg 85%
10:00 +10°C° 0.2 mm 1 mps 700 mmHg 82%
11:00 +9°C° 0.2 mm 2 mps 700 mmHg 79%
12:00 +10°C° 0 mm 3 mps 700 mmHg 73%
13:00 +10°C° 0.2 mm 3 mps 700 mmHg 72%
14:00 +11°C° 0.2 mm 4 mps 699 mmHg 71%
15:00 +11°C° 0.2 mm 4 mps 699 mmHg 69%
16:00 +10°C° 0.2 mm 4 mps 699 mmHg 76%
17:00 +8°C° 0.2 mm 4 mps 699 mmHg 82%
18:00 +7°C° 0.2 mm 5 mps 699 mmHg 88%
19:00 +6°C° 0 mm 4 mps 700 mmHg 89%
20:00 +7°C° 0 mm 3 mps 700 mmHg 90%
21:00 +6°C° 0 mm 2 mps 700 mmHg 91%
22:00 +6°C° 0 mm 2 mps 700 mmHg 91%
23:00 +6°C° 0 mm 2 mps 700 mmHg 90%

Tomorrow, 9 March, Tuesday

Time Temperature Precipitation Wind Pressure Humidity
00:00 +6°C° 0 mm 2 mps 700 mmHg 90%
01:00 +6°C° 0 mm 2 mps 700 mmHg 91%
02:00 +6°C° 0 mm 2 mps 700 mmHg 91%
03:00 +5°C° 0 mm 2 mps 700 mmHg 92%
04:00 +5°C° 0 mm 2 mps 700 mmHg 92%
05:00 +5°C° 0 mm 2 mps 700 mmHg 93%
06:00 +5°C° 0 mm 2 mps 701 mmHg 93%
07:00 +6°C° 0 mm 2 mps 701 mmHg 88%
08:00 +7°C° 0 mm 2 mps 702 mmHg 83%
09:00 +8°C° 0 mm 2 mps 702 mmHg 77%
10:00 +9°C° 0.1 mm 2 mps 702 mmHg 74%
11:00 +10°C° 0.1 mm 2 mps 702 mmHg 70%
12:00 +10°C° 0.1 mm 2 mps 702 mmHg 66%
13:00 +12°C° 0.4 mm 2 mps 702 mmHg 66%
14:00 +12°C° 0.4 mm 2 mps 702 mmHg 65%
15:00 +11°C° 0.4 mm 3 mps 701 mmHg 65%
16:00 +10°C° 0.4 mm 2 mps 701 mmHg 69%
17:00 +10°C° 0.4 mm 2 mps 701 mmHg 72%
18:00 +9°C° 0.4 mm 2 mps 701 mmHg 76%
19:00 +8°C° 0 mm 2 mps 702 mmHg 80%
20:00 +8°C° 0 mm 2 mps 702 mmHg 84%
21:00 +7°C° 0 mm 2 mps 702 mmHg 87%
22:00 +7°C° 0 mm 2 mps 702 mmHg 89%
23:00 +6°C° 0 mm 2 mps 703 mmHg 91%

Day after tomorrow, 10 March, Wednesday

Time Temperature Precipitation Wind Pressure Humidity
00:00 +7°C° 0 mm 1 mps 703 mmHg 93%
01:00 +6°C° 0 mm 1 mps 702 mmHg 93%
02:00 +6°C° 0 mm 1 mps 702 mmHg 94%
03:00 +6°C° 0 mm 1 mps 702 mmHg 94%
04:00 +6°C° 0 mm 1 mps 703 mmHg 93%
05:00 +5°C° 0 mm 1 mps 703 mmHg 92%
06:00 +5°C° 0 mm 1 mps 703 mmHg 91%
07:00 +7°C° 0 mm 1 mps 704 mmHg 81%
08:00 +9°C° 0 mm 1 mps 705 mmHg 71%
09:00 +9°C° 0 mm 2 mps 706 mmHg 62%
10:00 +10°C° 0 mm 2 mps 706 mmHg 53%
11:00 +12°C° 0 mm 3 mps 706 mmHg 45%
12:00 +13°C° 0 mm 3 mps 706 mmHg 37%
13:00 +13°C° 0 mm 3 mps 706 mmHg 34%
14:00 +14°C° 0 mm 3 mps 706 mmHg 31%
15:00 +14°C° 0 mm 3 mps 706 mmHg 28%
16:00 +14°C° 0 mm 2 mps 706 mmHg 34%
17:00 +13°C° 0 mm 2 mps 706 mmHg 40%
18:00 +11°C° 0 mm 1 mps 705 mmHg 46%
19:00 +9°C° 0 mm 2 mps 706 mmHg 50%
20:00 +9°C° 0 mm 2 mps 706 mmHg 54%
21:00 +8°C° 0 mm 2 mps 707 mmHg 58%
22:00 +8°C° 0 mm 2 mps 707 mmHg 58%
23:00 +7°C° 0 mm 2 mps 707 mmHg 58%

11 March, Thursday

Time Temperature Precipitation Wind Pressure Humidity
00:00 +7°C° 0 mm 2 mps 707 mmHg 58%
01:00 +7°C° 0 mm 2 mps 707 mmHg 56%
02:00 +6°C° 0 mm 2 mps 706 mmHg 54%
03:00 +6°C° 0 mm 2 mps 706 mmHg 52%
04:00 +5°C° 0 mm 3 mps 706 mmHg 52%
05:00 +5°C° 0 mm 3 mps 706 mmHg 53%
06:00 +5°C° 0 mm 3 mps 706 mmHg 53%
07:00 +6°C° 0 mm 4 mps 707 mmHg 52%
08:00 +8°C° 0 mm 4 mps 707 mmHg 51%
09:00 +11°C° 0 mm 4 mps 708 mmHg 50%
10:00 +13°C° 0 mm 5 mps 708 mmHg 46%
11:00 +14°C° 0 mm 5 mps 708 mmHg 42%
12:00 +16°C° 0 mm 6 mps 708 mmHg 38%
13:00 +17°C° 0 mm 6 mps 708 mmHg 36%
14:00 +17°C° 0 mm 6 mps 708 mmHg 35%
15:00 +19°C° 0 mm 6 mps 707 mmHg 33%
16:00 +16°C° 0 mm 5 mps 707 mmHg 37%
17:00 +15°C° 0 mm 5 mps 707 mmHg 41%
18:00 +14°C° 0 mm 4 mps 706 mmHg 46%
19:00 +13°C° 0 mm 4 mps 707 mmHg 50%
20:00 +12°C° 0 mm 4 mps 707 mmHg 54%
21:00 +11°C° 0 mm 4 mps 707 mmHg 59%
22:00 +11°C° 0 mm 4 mps 707 mmHg 62%
23:00 +10°C° 0 mm 5 mps 707 mmHg 65%

12 March, Friday

Time Temperature Precipitation Wind Pressure Humidity
00:00 +9°C° 0 mm 5 mps 706 mmHg 68%
01:00 +9°C° 0 mm 5 mps 706 mmHg 70%
02:00 +10°C° 0 mm 4 mps 706 mmHg 72%
03:00 +8°C° 0 mm 4 mps 705 mmHg 74%
04:00 +8°C° 0 mm 4 mps 705 mmHg 77%
05:00 +8°C° 0 mm 4 mps 705 mmHg 80%
06:00 +7°C° 0 mm 4 mps 705 mmHg 84%
07:00 +9°C° 0 mm 5 mps 705 mmHg 80%
08:00 +10°C° 0 mm 5 mps 705 mmHg 76%
09:00 +11°C° 0 mm 6 mps 706 mmHg 72%
10:00 +14°C° 0 mm 7 mps 706 mmHg 66%
11:00 +15°C° 0 mm 7 mps 706 mmHg 61%
12:00 +16°C° 0 mm 7 mps 706 mmHg 55%
13:00 +16°C° 0 mm 7 mps 705 mmHg 52%
14:00 +17°C° 0 mm 7 mps 705 mmHg 49%
15:00 +17°C° 0 mm 7 mps 704 mmHg 46%
16:00 +16°C° 0 mm 6 mps 704 mmHg 52%
17:00 +15°C° 0 mm 5 mps 704 mmHg 58%
18:00 +14°C° 0 mm 4 mps 704 mmHg 63%
19:00 +12°C° 0 mm 4 mps 704 mmHg 72%
20:00 +11°C° 0 mm 4 mps 705 mmHg 80%
21:00 +8°C° 0 mm 4 mps 705 mmHg 88%
22:00 +8°C° 0 mm 4 mps 705 mmHg 89%
23:00 +8°C° 0 mm 4 mps 706 mmHg 89%

13 March, Saturday

Time Temperature Precipitation Wind Pressure Humidity
00:00 +8°C° 0 mm 4 mps 706 mmHg 90%
01:00 +7°C° 0 mm 4 mps 706 mmHg 88%
02:00 +8°C° 0 mm 3 mps 706 mmHg 87%
03:00 +8°C° 0 mm 3 mps 706 mmHg 85%
04:00 +8°C° 0 mm 3 mps 706 mmHg 86%
05:00 +7°C° 0 mm 2 mps 706 mmHg 87%
06:00 +8°C° 0 mm 1 mps 706 mmHg 87%
07:00 +8°C° 0 mm 1 mps 707 mmHg 83%
08:00 +9°C° 0 mm 1 mps 707 mmHg 78%
09:00 +10°C° 0 mm 1 mps 708 mmHg 73%
10:00 +11°C° 0 mm 1 mps 708 mmHg 68%
11:00 +13°C° 0 mm 2 mps 708 mmHg 63%
12:00 +14°C° 0 mm 2 mps 708 mmHg 58%
13:00 +14°C° 0 mm 2 mps 708 mmHg 57%
14:00 +14°C° 0 mm 3 mps 707 mmHg 56%
15:00 +14°C° 0 mm 3 mps 707 mmHg 56%
16:00 +13°C° 0 mm 3 mps 707 mmHg 61%
17:00 +12°C° 0 mm 3 mps 706 mmHg 66%
18:00 +12°C° 0 mm 3 mps 706 mmHg 71%
19:00 +11°C° 0 mm 3 mps 706 mmHg 76%
20:00 +10°C° 0 mm 2 mps 707 mmHg 81%
21:00 +9°C° 0 mm 2 mps 707 mmHg 86%
22:00 +8°C° 0 mm 2 mps 707 mmHg 87%
23:00 +8°C° 0 mm 2 mps 707 mmHg 88%
Show more